Weather History for Watertown, WI

Change the Weather History Date:

Sunday, August 25, 2013

  Actual Average Record
Temperature  
Mean Temperature 75 °F -  
Max Temperature 87 °F 80 °F 96 °F (1948)
Min Temperature 64 °F 57 °F 37 °F (1958)
Cooling Degree Days 10    
Growing Degree Days 25 (Base 50)    
Moisture  
Dew Point 64 °F    
Average Humidity 70    
Maximum Humidity 89    
Minimum Humidity 51    
Precipitation  
Precipitation 0.00 in - - ()
Sea Level Pressure  
Sea Level Pressure 30.15 in    
Wind  
Wind Speed 7 mph (SSW)    
Max Wind Speed 17 mph    
Max Gust Speed 23 mph    
Visibility 10 miles    
Events      
Averages and records for this station are not official NWS values.
T = Trace of Precipitation, MM = Missing Value Source: NWS Daily Summary

Daily Weather History Graph

Daily Weather History Graph

Search for Another Location

Airport:

Trip Planner

Search our weather history database for the weather conditions in past years. The results will help you decide how hot, cold, wet, or windy it might be!

Date:

Astronomy

Aug. 25, 2013 Rise Set
Actual Time 6:11 AM CDT 7:41 PM CDT
Civil Twilight 5:41 AM CDT 8:10 PM CDT
Nautical Twilight 5:05 AM CDT 8:46 PM CDT
Astronomical Twilight 4:27 AM CDT 9:25 PM CDT
Moon 10:01 PM CDT (8/25) 11:23 AM CDT (8/25)
Length of Visible Light 14h 29m
Length of Day
13h 29m
Waning Gibbous, 75% of the Moon is Illuminated
Aug 25
Waning Gibbous
Aug 28
Last Quarter
Sep 5
New
Sep 12
First Quarter
Sep 19
Full

Hourly Weather History & Observations

Time (CDT) Temp. Heat Index Dew Point Humidity Pressure Visibility Wind Dir Wind Speed Gust Speed Precip Events Conditions
12:15 AM 66.6 °F - 62.6 °F 87% 30.19 in 10.0 mi SSE 3.5 mph - N/A   Clear
12:35 AM 66.4 °F - 62.6 °F 88% 30.19 in 10.0 mi SSE 3.5 mph - N/A   Clear
12:55 AM 66.0 °F - 62.6 °F 89% 30.19 in 10.0 mi SSE 3.5 mph - N/A   Clear
1:15 AM 66.2 °F - 62.6 °F 88% 30.19 in 10.0 mi SSE 3.5 mph - N/A   Clear
1:35 AM 66.2 °F - 62.2 °F 87% 30.19 in 10.0 mi South 4.6 mph - N/A   Clear
1:55 AM 66.4 °F - 62.1 °F 86% 30.18 in 10.0 mi SSE 3.5 mph - N/A   Clear
2:15 AM 66.6 °F - 61.3 °F 83% 30.19 in 10.0 mi South 4.6 mph - N/A   Clear
2:35 AM 67.1 °F - 59.9 °F 78% 30.19 in 10.0 mi South 5.8 mph - N/A   Clear
2:55 AM 67.1 °F - 59.0 °F 75% 30.19 in 10.0 mi South 5.8 mph - N/A   Clear
3:15 AM 67.5 °F - 57.9 °F 71% 30.18 in 10.0 mi South 6.9 mph - N/A   Clear
3:35 AM 67.3 °F - 57.7 °F 71% 30.18 in 10.0 mi South 5.8 mph - N/A   Clear
3:55 AM 66.9 °F - 57.9 °F 73% 30.18 in 10.0 mi South 3.5 mph - N/A   Clear
4:35 AM 66.0 °F - 58.5 °F 77% 30.19 in 10.0 mi South 3.5 mph - N/A   Clear
4:55 AM 66.0 °F - 58.5 °F 77% 30.20 in 10.0 mi South 3.5 mph - N/A   Clear
5:15 AM 65.8 °F - 59.0 °F 79% 30.19 in 10.0 mi South 3.5 mph - N/A   Clear
5:35 AM 65.5 °F - 59.2 °F 80% 30.20 in 10.0 mi South 4.6 mph - N/A   Clear
5:55 AM 64.9 °F - 59.2 °F 82% 30.19 in 10.0 mi South 5.8 mph - N/A   Clear
6:15 AM 65.3 °F - 59.5 °F 82% 30.20 in 10.0 mi SSE 3.5 mph - N/A   Clear
6:35 AM 65.7 °F - 60.1 °F 82% 30.21 in 10.0 mi South 4.6 mph - N/A   Clear
6:55 AM 66.2 °F - 60.8 °F 83% 30.21 in 10.0 mi South 3.5 mph - N/A   Clear
7:15 AM 67.6 °F - 61.5 °F 81% 30.21 in 10.0 mi South 3.5 mph - N/A   Clear
7:35 AM 69.8 °F - 62.6 °F 78% 30.21 in 10.0 mi SSW 5.8 mph - N/A   Clear
7:55 AM 71.6 °F - 63.7 °F 76% 30.21 in 10.0 mi South 5.8 mph - N/A   Clear
8:15 AM 73.4 °F - 64.8 °F 74% 30.21 in 10.0 mi SSW 9.2 mph - N/A   Clear
8:35 AM 74.5 °F - 65.1 °F 72% 30.21 in 10.0 mi SSW 10.4 mph - N/A   Clear
8:55 AM 75.7 °F - 66.0 °F 72% 30.21 in 10.0 mi SW 9.2 mph - N/A   Clear
9:15 AM 77.0 °F - 66.6 °F 70% 30.21 in 10.0 mi SW 12.7 mph 17.3 mph N/A   Clear
9:35 AM 76.8 °F - 66.6 °F 70% 30.21 in 10.0 mi SW 12.7 mph - N/A   Clear
12:15 PM 84.4 °F 88.2 °F 69.3 °F 60% 30.16 in 10.0 mi SSW 17.3 mph 20.7 mph N/A   Clear
12:35 PM 85.1 °F 88.5 °F 68.4 °F 57% 30.16 in 10.0 mi SW 16.1 mph 23.0 mph N/A   Clear
12:55 PM 85.3 °F 88.5 °F 68.2 °F 56% 30.16 in 10.0 mi SW 16.1 mph 20.7 mph N/A   Clear
1:15 PM 86.0 °F 89.1 °F 67.6 °F 54% 30.15 in 10.0 mi SW 13.8 mph 19.6 mph N/A   Clear
1:35 PM 86.0 °F 88.5 °F 66.6 °F 52% 30.15 in 10.0 mi SW 10.4 mph 19.6 mph N/A   Clear
1:55 PM 86.5 °F 89.0 °F 66.6 °F 51% 30.15 in 10.0 mi SW 16.1 mph 20.7 mph N/A   Clear
2:15 PM 86.9 °F 90.6 °F 68.4 °F 54% 30.14 in 10.0 mi SSW 15.0 mph 18.4 mph N/A   Clear
2:35 PM 86.7 °F 90.6 °F 68.5 °F 55% 30.13 in 10.0 mi SSW 13.8 mph - N/A   Clear
2:55 PM 86.4 °F 90.0 °F 68.5 °F 55% 30.13 in 10.0 mi SSW 15.0 mph - N/A   Clear
3:15 PM 86.7 °F 90.6 °F 68.7 °F 55% 30.13 in 10.0 mi SSW 15.0 mph 18.4 mph N/A   Clear
3:35 PM 86.5 °F 89.6 °F 67.5 °F 53% 30.11 in 10.0 mi SSW 13.8 mph 23.0 mph N/A   Clear
3:55 PM 86.5 °F 89.3 °F 67.3 °F 52% 30.11 in 10.0 mi SSW 13.8 mph - N/A   Clear
4:15 PM 86.5 °F 89.0 °F 66.6 °F 51% 30.10 in 10.0 mi SW 16.1 mph 21.9 mph N/A   Clear
4:35 PM 86.5 °F 89.0 °F 66.2 °F 51% 30.10 in 10.0 mi SSW 15.0 mph 21.9 mph N/A   Clear
4:55 PM 86.2 °F 88.4 °F 66.4 °F 51% 30.10 in 10.0 mi SSW 13.8 mph 19.6 mph N/A   Clear
5:15 PM 86.0 °F 88.5 °F 66.6 °F 52% 30.10 in 10.0 mi SSW 9.2 mph - N/A   Clear
5:55 PM 84.6 °F 86.3 °F 65.3 °F 52% 30.10 in 10.0 mi SW 10.4 mph 18.4 mph N/A   Clear
6:15 PM 83.8 °F 85.3 °F 64.8 °F 52% 30.10 in 10.0 mi SW 11.5 mph - N/A   Clear
6:35 PM 82.6 °F 84.9 °F 66.2 °F 58% 30.10 in 10.0 mi SSW 5.8 mph - N/A   Clear
6:55 PM 81.3 °F 84.1 °F 68.0 °F 64% 30.10 in 10.0 mi SSW 5.8 mph - N/A   Clear
7:15 PM 80.2 °F 82.6 °F 67.1 °F 64% 30.10 in 10.0 mi SSW 5.8 mph - N/A   Clear
7:35 PM 79.0 °F - 66.7 °F 66% 30.11 in 10.0 mi SSW 8.1 mph - N/A   Clear
7:55 PM 78.3 °F - 66.4 °F 67% 30.10 in 10.0 mi SSW 6.9 mph - N/A   Clear
8:15 PM 77.0 °F - 66.2 °F 69% 30.11 in 10.0 mi SW 4.6 mph - N/A   Clear
8:35 PM 76.1 °F - 65.7 °F 70% 30.11 in 10.0 mi SSW 4.6 mph - N/A   Clear
8:55 PM 75.9 °F - 65.5 °F 70% 30.12 in 10.0 mi SW 6.9 mph - N/A   Clear
9:15 PM 75.2 °F - 65.3 °F 71% 30.12 in 10.0 mi SSW 5.8 mph - N/A   Clear
9:35 PM 74.3 °F - 65.3 °F 73% 30.12 in 10.0 mi SSW 4.6 mph - N/A   Clear
9:55 PM 74.5 °F - 65.8 °F 74% 30.12 in 10.0 mi SSW 5.8 mph - N/A   Clear
10:15 PM 73.9 °F - 66.4 °F 77% 30.13 in 10.0 mi SSW 6.9 mph - N/A   Clear
10:35 PM 74.3 °F - 66.7 °F 77% 30.13 in 10.0 mi SSW 5.8 mph - N/A   Clear
10:55 PM 74.3 °F - 66.9 °F 78% 30.13 in 10.0 mi SSW 6.9 mph - N/A   Clear
11:15 PM 74.5 °F - 66.9 °F 77% 30.13 in 10.0 mi SSW 6.9 mph - N/A   Clear
11:35 PM 74.3 °F - 67.1 °F 78% 30.12 in 10.0 mi SSW 5.8 mph - N/A   Clear
11:55 PM 73.9 °F - 67.1 °F 79% 30.11 in 10.0 mi SSW 8.1 mph - N/A   Clear